This is the latest recevied weather packets stored in our database for station/object OE5HCE. If no packets are shown the sender has not sent any weather packets the latest 10 day(s).
| Time | Temp. | Humidity | Pressure | Rain* | Wind** | Luminosity | Snow |
|---|---|---|---|---|---|---|---|
| 1787554820 | 15.56° C | 75% | 1022.2 hPa | 0 mm | - | 339 W/m² | - |
| 1787553915 | 15° C | 76% | 1022.2 hPa | 0 mm | - | 311 W/m² | - |
| 1787553015 | 14.44° C | 69% | 1022.2 hPa | 0 mm | - | 278 W/m² | - |
| 1787552117 | 13.89° C | 58% | 1022.3 hPa | 0 mm | - | 225 W/m² | - |
| 1787551216 | 13.33° C | 57% | 1022.3 hPa | 0 mm | - | 197 W/m² | - |
| 1787550305 | 13.33° C | 56% | 1022.3 hPa | 0 mm | - | 77 W/m² | - |
| 1787549460 | 13.33° C | 55% | 1022.2 hPa | 0 mm | - | 65 W/m² | - |
| 1787548559 | 12.78° C | 57% | 1022.2 hPa | 0 mm | - | 91 W/m² | - |
| 1787547665 | 12.78° C | 59% | 1022.2 hPa | 0 mm | - | 54 W/m² | - |
| 1787546753 | 12.22° C | 63% | 1022.1 hPa | 0 mm | - | 19 W/m² | - |
| 1787545851 | 12.78° C | 64% | 1021.8 hPa | 0 mm | - | 12 W/m² | - |
| 1787544950 | 12.78° C | 64% | 1021.9 hPa | 0 mm | - | 5 W/m² | - |
| 1787544048 | 13.33° C | 63% | 1021.9 hPa | 0 mm | - | 0 W/m² | - |
| 1787543146 | 13.33° C | 64% | 1021.8 hPa | 0 mm | - | 0 W/m² | - |
| 1787542246 | 13.33° C | 65% | 1021.7 hPa | 0 mm | - | 0 W/m² | - |
| 1787541348 | 13.33° C | 65% | 1021.7 hPa | 0 mm | - | 0 W/m² | - |
| 1787540444 | 13.33° C | 64% | 1021.7 hPa | 0 mm | - | 0 W/m² | - |
| 1787539545 | 13.33° C | 67% | 1021.7 hPa | 0 mm | - | 0 W/m² | - |
| 1787538641 | 13.33° C | 67% | 1021.7 hPa | 0 mm | - | 0 W/m² | - |
| 1787537765 | 13.33° C | 69% | 1021.9 hPa | 0 mm | - | 0 W/m² | - |
| 1787536841 | 13.33° C | 70% | 1021.8 hPa | 0 mm | - | 0 W/m² | - |
| 1787535939 | 13.89° C | 70% | 1021.7 hPa | 0 mm | - | 0 W/m² | - |
| 1787535040 | 13.89° C | 69% | 1021.6 hPa | 0 mm | - | 0 W/m² | - |
| 1787534137 | 13.33° C | 70% | 1021.6 hPa | 0 mm | - | 0 W/m² | - |
| 1787533238 | 13.33° C | 71% | 1021.7 hPa | 0 mm | - | 0 W/m² | - |
* Rain latest hour (hover to see other rain measurements)
** Current wind speed in m/s (hover to see current wind gust speed)